Barranquilla, Colombia

9:27 PM COT on December 04, 2016 (GMT -0500)
Ernesto Cortissoz

Weather History for SKBQ - December, 2012

Change the Weather History Date:

Monday, December 10, 2012

  Actual Average Record
Temperature  
Mean Temperature 87 °F -  
Max Temperature 95 °F 87 °F 95 °F (2012)
Min Temperature 79 °F 75 °F 71 °F (1998)
Cooling Degree Days 22    
Growing Degree Days 37 (Base 50)    
Moisture  
Dew Point 77 °F    
Average Humidity 77    
Maximum Humidity 90    
Minimum Humidity 49    
Precipitation  
Precipitation 0.00 in - - ()
Sea Level Pressure  
Sea Level Pressure 29.77 in    
Wind  
Wind Speed 8 mph ()    
Max Wind Speed 21 mph    
Max Gust Speed -    
Visibility 5.7 miles    
Events      
Averages and records for this station are not official NWS values.
T = Trace of Precipitation, MM = Missing Value Source: Averaged Metar Reports

Daily Weather History Graph

Daily Weather History Graph

Search for Another Location

Airport or City:

Trip Planner

Search our weather history database for the weather conditions in past years. The results will help you decide how hot, cold, wet, or windy it might be!

Date:

Astronomy

Dec. 10, 2012 Rise Set
Actual Time 6:07 AM COT 5:37 PM COT
Civil Twilight 5:44 AM COT 6:00 PM COT
Nautical Twilight 5:17 AM COT 6:26 PM COT
Astronomical Twilight 4:51 AM COT 6:52 PM COT
Moon 3:07 AM COT (12/10) 3:08 PM COT (12/10)
Length of Visible Light 12h 15m
Length of Day
11h 30m
Waning Crescent, 10% of the Moon is Illuminated
Dec 10
Waning Crescent
Dec 13
New
Dec 20
First Quarter
Dec 28
Full
Jan 4
Last Quarter

Hourly Weather History & Observations

Time (COT) Temp. Heat Index Dew Point Humidity Pressure Visibility Wind Dir Wind Speed Gust Speed Precip Events Conditions
12:00 AM 84.2 °F 92.3 °F 75.2 °F 74% 29.76 in 6.2 mi NNE 6.9 mph - N/A   Partly Cloudy
1:00 AM 83 °F - 76 °F 73% 29.77 in 6 mi NNE 6.7 mph - -   Haze
1:00 AM 84.2 °F 92.3 °F 75.2 °F 74% 29.76 in 6.2 mi NNE 6.9 mph - N/A   Partly Cloudy
2:00 AM 82.4 °F 89.5 °F 75.2 °F 79% 29.74 in 6.2 mi North 3.5 mph - N/A   Partly Cloudy
3:00 AM 82.4 °F 89.5 °F 75.2 °F 79% 29.72 in 6.2 mi NNE 5.8 mph - N/A   Partly Cloudy
4:00 AM 81 °F - 76 °F 82% 29.75 in 6 mi NNE 6.7 mph - -   Haze
4:00 AM 80.6 °F 87.1 °F 77.0 °F 89% 29.74 in - NNE 5.8 mph - N/A   Clear
5:00 AM 80.6 °F 87.1 °F 77.0 °F 89% 29.74 in - NNE 5.8 mph - N/A   Clear
6:00 AM 80.6 °F 87.1 °F 77.0 °F 89% 29.76 in - NNE 3.5 mph - N/A   Clear
6:16 AM 80.6 °F 87.1 °F 77.0 °F 89% 29.77 in 2.5 mi West 3.5 mph - N/A   Mostly Cloudy
7:00 AM 82 °F - 80 °F 90% 29.79 in 3 mi West 8.9 mph - -   Mist
7:00 AM 82.4 °F 92.4 °F 78.8 °F 89% 29.78 in 3.1 mi West 9.2 mph - N/A   Mostly Cloudy
7:23 AM 82.4 °F 92.4 °F 78.8 °F 89% 29.79 in 3.7 mi WNW 6.9 mph - N/A   Partly Cloudy
8:00 AM 84.2 °F 94.1 °F 77.0 °F 79% 29.81 in - WNW 6.9 mph - N/A   Clear
9:00 AM 87.8 °F 99.7 °F 77.0 °F 70% 29.82 in - West 8.1 mph - N/A   Clear
10:00 AM 89 °F - 74 °F 54% 29.84 in 7 mi West 6.7 mph - -   Haze
10:00 AM 89.6 °F 99.8 °F 75.2 °F 62% 29.83 in - West 5.8 mph - N/A   Clear
11:00 AM 93.2 °F 105.0 °F 75.2 °F 56% 29.82 in 6.2 mi East 3.5 mph - N/A   Partly Cloudy
12:00 PM 95.0 °F 104.5 °F 73.4 °F 49% 29.80 in 6.2 mi ESE 9.2 mph - N/A   Partly Cloudy
1:00 PM 92 °F - 78 °F 56% 29.78 in 9 mi West 13.4 mph - -   Haze
1:00 PM - - 78.8 °F N/A% 29.77 in 6.2 mi West 13.8 mph - N/A   Scattered Clouds
3:00 PM 89.6 °F 104.7 °F 78.8 °F 70% 29.73 in 6.2 mi West 20.7 mph - N/A   Partly Cloudy
4:00 PM 87.8 °F 102.5 °F 78.8 °F 75% 29.72 in 6.2 mi West 17.3 mph - N/A   Partly Cloudy
5:00 PM 86.0 °F 99.3 °F 78.8 °F 79% 29.73 in - West 16.1 mph - N/A   Clear
6:00 PM 84.2 °F 96.1 °F 78.8 °F 84% 29.73 in - West 17.3 mph - N/A   Clear
7:00 PM 84 °F - 78 °F 78% 29.75 in 6 mi West 11.2 mph - -   Haze
7:00 PM 84.2 °F 96.1 °F 78.8 °F 84% 29.74 in - West 10.4 mph - N/A   Clear
8:00 PM 84.2 °F 96.1 °F 78.8 °F 84% 29.75 in - West 12.7 mph - N/A   Clear
9:00 PM 84.2 °F 96.1 °F 78.8 °F 84% 29.77 in - WNW 11.5 mph - N/A   Clear
10:00 PM 84 °F - 78 °F 76% 29.78 in 6 mi West 13.4 mph - -   Haze
10:00 PM 84.2 °F 94.1 °F 77.0 °F 79% 29.77 in - West 12.7 mph - N/A   Clear
11:00 PM 84.2 °F 92.3 °F 75.2 °F 74% 29.76 in - West 16.1 mph - N/A   Clear